Overview Statistics Trail Chart Weather Telemetry Raw packets
 

This is the latest recevied weather packets stored in our database for station/object EA2FBA-10. If no packets are shown the sender has not sent any weather packets the latest 10 day(s).

<< 1 2 3 4 5 6 >>
Time Temp. Humidity Pressure Rain* Wind** Luminosity Snow
1788597687 22.78° C 60% 961.3 hPa - - - -
1788596797 22.78° C 61% 961.3 hPa - - - -
1788596786 22.78° C 61% 961.3 hPa - - - -
1788595899 22.22° C 62% 961.3 hPa - - - -
1788595886 22.22° C 62% 961.3 hPa - - - -
1788594999 22.22° C 64% 961.4 hPa - - - -
1788594986 22.22° C 64% 961.4 hPa - - - -
1788594107 21.67° C 64% 961.4 hPa - - - -
1788594086 21.67° C 64% 961.4 hPa - - - -
1788593197 21.67° C 64% 961.5 hPa - - - -
1788593186 21.67° C 64% 961.5 hPa - - - -
1788592297 21.67° C 63% 961.4 hPa - - - -
1788592286 21.67° C 63% 961.4 hPa - - - -
1788591399 21.11° C 62% 961.2 hPa - - - -
1788591386 21.11° C 62% 961.2 hPa - - - -
1788590486 20.56° C 63% 961.2 hPa - - - -
1788589586 20.56° C 64% 961 hPa - - - -
1788588697 20.56° C 64% 961 hPa - - - -
1788588686 20.56° C 64% 961 hPa - - - -
1788587785 20° C 65% 961.1 hPa - - - -
1788586897 20.56° C 65% 961.3 hPa - - - -
1788586885 20.56° C 65% 961.3 hPa - - - -
1788585985 20.56° C 65% 961.3 hPa - - - -
1788585084 20.56° C 66% 961.3 hPa - - - -
1788584183 20.56° C 66% 961.2 hPa - - - -

* Rain since midnight (hover to see other rain measurements)
** Current wind speed in m/s (hover to see current wind gust speed)